Погода в Пудоже

Погода в Пудоже : погода сейчас, прогноз погоды и архив. Всё, что Вы хотите узнать о погоде в Пудоже!

Хотите узнать прогноз погоды в Пудоже? Тогда Вам сюда: Погода в Пудоже

Поиск расширенной информации на нашем сайте:

Другие новости

Новости СМИ2

Главная страница сайта

Новости сайта

03.07.2017

Напоминаем, что на нашем специализированном сайте Метеоцентр.Азия вы можете получить высокодетализированные автоматические прогнозы погоды по пунктам России, СНГ и мира в авиационном формате (включающие направление и скорость ветра, видимость, явления погоды, количество и форму облачности, нижнюю и верхнюю границу облачности).

Рекомендуем: выгодно снять: продажа офиса БЦ Новоспасский Двор у метро Пролетарская на сайте бизнес центра

Погода в Пудоже - сегодня

Время (UTC), дата Ветер
(°,м/с) 
Видим.   Явления Облачность Т
(°С)
Тd
(°С)
f(%) Тe
(°С)
Pmin
(гПа)
dP
(гПа)
Po
(мм)
O2
(г/м3)
Тmin Tmax R s Состояние
почвы
12 14.02.18 220 (ЮЗ) 20000 м    ясно 
-5.8 -10.2 71 -5  1031.4  0.4  769  318           
15 14.02.18 тихо ()   10 км    ясно 
-12.1 -13 93 -12  1032.5  770  326           
18 14.02.18 040 (СВ) 10 км    ясно 
-15.8 -17 90 -16  1033.3  0.7  770  331    -5       
21 14.02.18 тихо ()   10 км    ясно 
-18.7 -20.2 88 -19  1034.1  0.7  771  335           
00 15.02.18 тихо ()   10 км    ясно 
-21 -22.7 86 -21  1034.9  0.8  772  339           
09 15.02.18 100 (В) 20000 м    3/0 верхняя 
[Ci fib]
-11 -13.9 79 -11  1035.7  0.6  772  326           
12 15.02.18 200 (Ю) 20000 м    5/0 верхняя 
[Ci fib]
-6.4 -10.3 74 -6  1034.7  -0.8  772  319           
15 15.02.18 030 (СВ) 10 км    5/0 средняя, верхняя 
[Ac trans|Ci fib]
-13.6 -14.8 91 -14  1034.2  -0.7  771  328           
18 15.02.18 040 (СВ) 10 км    ясно 
-16.6 -18 89 -17  1034  -0.3  771  332    -5.9       
21 15.02.18 030 (СВ) 10 км    ясно 
-18.7 -20.4 86 -19  1033.1  -0.9  770  335           
00 16.02.18 тихо ()   10 км    ясно 
-21.3 -23.2 85 -21  1032.4  -0.7  770  338           
09 16.02.18 100 (В) 10 км  слаб. снег  10/0 средняя 
[As op]
-11.3 -12.7 89 -11  1028.9  -0.8  767  324           
21 16.02.18 тихо ()   10 км  {снег}  10/0 средняя 
[As op]
-13.9 -15.2 90 -14  1026.9  0.1  766  326           
03 17.02.18 тихо ()   10 км  {снег}  6/0 средняя 
[Ac trans]
-15.4 -16.7 90 -15  1026.4  -0.5  765  328  -15.6    0.4     
09 17.02.18 080 (В) 5000 м  слаб. снег  10/0 средняя 
[As op]
-7.4 -8.9 89 -7  1025.2  -0.8  765  318           
03 18.02.18 тихо ()   4000 м  слаб. снег  10/10 400 м 
[Ns]
-6.7 -7.8 92 -7  1022.7  -0.3  763  316  -7.1    0.5     
03 19.02.18 050 (СВ) 10 км    10/10 420 м кучево-дожд. 
[Cb cap]
-7.2 -8.7 89 -7  1021.1  -0.4  761  316  -7.2    0.2     
09 19.02.18 050 (СВ) 10 км  слаб. снег{ливн. осадки}  10/0 средняя 
[As op]
-7.3 -10 81 -9  1021.6  0.5  762  316           
15 19.02.18 360 (С) 10 км    9/0 средняя 
[Ac trans]
-7.9 -10 85 -8  1021.9  0.5  762  317      0.5     
21 19.02.18 010 (С) 10 км    ясно 
-10 -11.1 92 -10  1021.2  -0.5  761  320           
00 20.02.18 340 (С) 10 км    ясно 
-11.2 -12.5 90 -11  1021.3  0.1  762  321           
09 20.02.18 020 (С) 20000 м  позёмок  8/0 средняя 
[Ac trans]
-8.3 -12.2 73 -11  1021.9  0.4  762  318           
21 20.02.18 340 (С) 10 км    ясно 
-11.7 -13.2 89 -14  1022.7  763  322           
00 21.02.18 330 (СЗ) н/о    н/о 
-12.8 -14.3 89 -15  1022.9  0.2  763  324           
03 21.02.18 360 (С) 10 км    3/0 средняя 
[Ac trans]
-12.7 -14.6 86 -13  1023.2  0.3  763  324  -13         
Время (UTC), дата Ветер
(°,м/с) 
Видим.   Явления Облачность Т
(°С)
Тd
(°С)
f(%) Тe
(°С)
Pmin
(гПа)
dP
(гПа)
Po
(мм)
O2
(г/м3)
Тmin Tmax R s Состояние
почвы

Для получения пояснительной информации подведите курсор к названию столбца.

ПОГОДА в Пудоже - архив

Всё, что Вы хотите узнать о погоде в Пудоже - удобно и подробно!

Выберите нужную дату (начиная с 1 января 2015* года) и нажмите кнопку "Найти".
Будут отображены архивные сводки погоды по пункту Пудож, начиная с указанной даты.


Отображать данные в формате CSV (для использования в таблицах Excel)


Внимание! Наш архив погоды предназначен исключительно для личного некоммерческого использования в познавательных целях. Если Вам необходимы официальные справки о состоянии погоды (для производственных, юридических, коммерческих и т.п. целей), обращайтесь в органы Росгидромета.

*Примечание: данная дата относится к архиву по метеостанциям СССР (Россия, СНГ, Балтия).
Архив по метеостанциям Зарубежной Европы и Азии (кроме Китая) хранится 10 дней, по другим регионам земного шара (Китай, Африка, Америка, Австралия, Океания) - 1 день.

Пудож - район местоположения метеостанции


Название, широта, долгота, высота метеостанции:
Пудож 61.8°ш. 36.5°д. 44 м над ур. моря [Российская Федерация]

Дополнительная информация

В oтличие oт бoльшинства пoгoдных сайтoв мы публикуем пoдрoбную метеoинфoрмацию в детальнoм прoфессиoнальнoм фoрмате.

Характеристики температуры и влажнoсти вoздуха измеряются на высoте 2 м в тени вдали oт зданий и деревьев.
Скoрoсть ветра измеряется на высoте 10 м (на урoвне рoста челoвека скoрoсть ветра ниже в 1.5-2 раза). Если метеoстанция нахoдится в гoрoде или в лесу, тo скoрoсть ветра занижена на 2-4 м/с пo сравнению с oткрытым местoм. Скoрoсть ветра над акватoриями крупных рек и oзёр, а также на вершинах хoлмoв на 2-5 м/с выше, чем в oбычных услoвиях.
Атмoсфернoе давление в разных тoчках местнoсти мoжет значительнo oтличаться oт давления на метеoстанции, в зависимoсти oт услoвий рельефа (при пoдъёме на 10 м давление пoнижается примернo на 1 мм рт.ст.).